EN

Hourly Weather Kyuryag

Today, 30 July, Friday

Time Temperature Precipitation Wind Pressure Humidity
00:00 +16°C° 0 mm 2 mps 667 mmHg 60%
01:00 +16°C° 0 mm 2 mps 667 mmHg 61%
02:00 +16°C° 0 mm 2 mps 666 mmHg 61%
03:00 +15°C° 0 mm 2 mps 666 mmHg 61%
04:00 +16°C° 0 mm 1 mps 667 mmHg 59%
05:00 +18°C° 0 mm 1 mps 667 mmHg 57%
06:00 +19°C° 0 mm 1 mps 667 mmHg 55%
07:00 +19°C° 0 mm 2 mps 667 mmHg 49%
08:00 +21°C° 0 mm 2 mps 668 mmHg 43%
09:00 +22°C° 0 mm 3 mps 668 mmHg 39%
10:00 +24°C° 0 mm 3 mps 668 mmHg 38%
11:00 +25°C° 0 mm 3 mps 668 mmHg 37%
12:00 +26°C° 0 mm 3 mps 668 mmHg 36%
13:00 +26°C° 0 mm 3 mps 667 mmHg 36%
14:00 +26°C° 0 mm 4 mps 667 mmHg 37%
15:00 +26°C° 0 mm 4 mps 667 mmHg 37%
16:00 +25°C° 0 mm 3 mps 667 mmHg 41%
17:00 +22°C° 0 mm 3 mps 667 mmHg 46%
18:00 +21°C° 0 mm 2 mps 666 mmHg 51%
19:00 +20°C° 0 mm 2 mps 666 mmHg 54%
20:00 +19°C° 0 mm 2 mps 666 mmHg 58%
21:00 +17°C° 0 mm 2 mps 666 mmHg 61%
22:00 +17°C° 0 mm 2 mps 666 mmHg 60%
23:00 +17°C° 0 mm 2 mps 665 mmHg 59%

Tomorrow, 31 July, Saturday

Time Temperature Precipitation Wind Pressure Humidity
00:00 +17°C° 0 mm 2 mps 665 mmHg 59%
01:00 +17°C° 0 mm 2 mps 665 mmHg 59%
02:00 +17°C° 0 mm 2 mps 665 mmHg 60%
03:00 +17°C° 0 mm 2 mps 665 mmHg 61%
04:00 +18°C° 0 mm 2 mps 665 mmHg 60%
05:00 +19°C° 0 mm 1 mps 665 mmHg 59%
06:00 +20°C° 0 mm 1 mps 666 mmHg 58%
07:00 +21°C° 0 mm 2 mps 666 mmHg 53%
08:00 +23°C° 0 mm 2 mps 666 mmHg 48%
09:00 +25°C° 0 mm 2 mps 667 mmHg 43%
10:00 +26°C° 0 mm 3 mps 666 mmHg 42%
11:00 +27°C° 0 mm 3 mps 666 mmHg 41%
12:00 +27°C° 0 mm 4 mps 666 mmHg 40%
13:00 +27°C° 0.1 mm 3 mps 666 mmHg 42%
14:00 +27°C° 0.1 mm 3 mps 666 mmHg 43%
15:00 +27°C° 0.1 mm 3 mps 666 mmHg 44%
16:00 +26°C° 0.1 mm 3 mps 666 mmHg 49%
17:00 +25°C° 0.1 mm 2 mps 666 mmHg 55%
18:00 +24°C° 0.1 mm 2 mps 666 mmHg 60%
19:00 +21°C° 0.3 mm 2 mps 666 mmHg 66%
20:00 +20°C° 0.3 mm 2 mps 666 mmHg 72%
21:00 +18°C° 0.3 mm 2 mps 666 mmHg 78%
22:00 +18°C° 0.1 mm 2 mps 666 mmHg 76%
23:00 +18°C° 0.1 mm 2 mps 666 mmHg 74%

Day after tomorrow, 1 August, Sunday

Time Temperature Precipitation Wind Pressure Humidity
00:00 +18°C° 0.1 mm 2 mps 666 mmHg 72%
01:00 +18°C° 0 mm 2 mps 666 mmHg 72%
02:00 +18°C° 0 mm 2 mps 666 mmHg 72%
03:00 +18°C° 0 mm 2 mps 666 mmHg 72%
04:00 +20°C° 0 mm 1 mps 666 mmHg 71%
05:00 +20°C° 0 mm 1 mps 666 mmHg 70%
06:00 +21°C° 0 mm 1 mps 667 mmHg 69%
07:00 +23°C° 0 mm 1 mps 667 mmHg 64%
08:00 +24°C° 0 mm 2 mps 667 mmHg 58%
09:00 +26°C° 0 mm 2 mps 668 mmHg 53%
10:00 +27°C° 0.3 mm 3 mps 668 mmHg 50%
11:00 +27°C° 0.3 mm 3 mps 668 mmHg 48%
12:00 +28°C° 0.3 mm 4 mps 668 mmHg 45%
13:00 +28°C° 0.4 mm 4 mps 668 mmHg 46%
14:00 +27°C° 0.4 mm 3 mps 668 mmHg 46%
15:00 +27°C° 0.4 mm 3 mps 668 mmHg 47%
16:00 +26°C° 0.1 mm 3 mps 667 mmHg 50%
17:00 +25°C° 0.1 mm 2 mps 667 mmHg 52%
18:00 +25°C° 0.1 mm 2 mps 667 mmHg 55%
19:00 +24°C° 0 mm 2 mps 667 mmHg 57%
20:00 +21°C° 0 mm 2 mps 667 mmHg 60%
21:00 +20°C° 0 mm 2 mps 667 mmHg 62%
22:00 +20°C° 0 mm 2 mps 667 mmHg 61%
23:00 +20°C° 0 mm 2 mps 667 mmHg 60%

2 August, Monday

Time Temperature Precipitation Wind Pressure Humidity
00:00 +20°C° 0 mm 2 mps 667 mmHg 60%
01:00 +19°C° 0 mm 2 mps 667 mmHg 59%
02:00 +19°C° 0 mm 2 mps 667 mmHg 59%
03:00 +19°C° 0 mm 2 mps 666 mmHg 58%
04:00 +20°C° 0 mm 2 mps 667 mmHg 57%
05:00 +20°C° 0 mm 2 mps 667 mmHg 56%
06:00 +21°C° 0 mm 2 mps 667 mmHg 54%
07:00 +24°C° 0 mm 2 mps 668 mmHg 45%
08:00 +26°C° 0 mm 2 mps 668 mmHg 36%
09:00 +28°C° 0 mm 2 mps 669 mmHg 27%
10:00 +28°C° 0 mm 3 mps 669 mmHg 28%
11:00 +29°C° 0 mm 3 mps 668 mmHg 28%
12:00 +29°C° 0 mm 4 mps 668 mmHg 29%
13:00 +29°C° 0 mm 4 mps 668 mmHg 30%
14:00 +29°C° 0 mm 4 mps 668 mmHg 32%
15:00 +29°C° 0 mm 4 mps 668 mmHg 33%
16:00 +28°C° 0 mm 3 mps 668 mmHg 36%
17:00 +27°C° 0 mm 3 mps 668 mmHg 39%
18:00 +26°C° 0 mm 2 mps 668 mmHg 42%
19:00 +24°C° 0 mm 2 mps 668 mmHg 44%
20:00 +23°C° 0 mm 2 mps 667 mmHg 46%
21:00 +20°C° 0 mm 2 mps 667 mmHg 47%
22:00 +20°C° 0 mm 2 mps 667 mmHg 47%
23:00 +20°C° 0 mm 2 mps 667 mmHg 47%

3 August, Tuesday

Time Temperature Precipitation Wind Pressure Humidity
00:00 +20°C° 0 mm 2 mps 667 mmHg 47%
01:00 +20°C° 0 mm 2 mps 667 mmHg 49%
02:00 +20°C° 0 mm 2 mps 666 mmHg 50%
03:00 +20°C° 0 mm 2 mps 666 mmHg 51%
04:00 +20°C° 0 mm 2 mps 667 mmHg 51%
05:00 +21°C° 0 mm 2 mps 667 mmHg 51%
06:00 +23°C° 0 mm 2 mps 667 mmHg 51%
07:00 +24°C° 0 mm 2 mps 668 mmHg 45%
08:00 +26°C° 0 mm 2 mps 668 mmHg 40%
09:00 +28°C° 0 mm 2 mps 668 mmHg 34%
10:00 +29°C° 0.1 mm 3 mps 668 mmHg 33%
11:00 +29°C° 0.1 mm 3 mps 668 mmHg 31%
12:00 +30°C° 0.1 mm 4 mps 668 mmHg 30%
13:00 +30°C° 0.1 mm 3 mps 668 mmHg 30%
14:00 +29°C° 0.1 mm 3 mps 668 mmHg 31%
15:00 +29°C° 0.1 mm 3 mps 668 mmHg 31%
16:00 +28°C° 0 mm 2 mps 668 mmHg 34%
17:00 +27°C° 0 mm 1 mps 668 mmHg 37%
18:00 +27°C° 0 mm 1 mps 668 mmHg 40%
19:00 +25°C° 0 mm 1 mps 668 mmHg 42%
20:00 +24°C° 0 mm 2 mps 668 mmHg 44%
21:00 +23°C° 0 mm 2 mps 668 mmHg 47%
22:00 +21°C° 0 mm 2 mps 668 mmHg 47%
23:00 +21°C° 0 mm 2 mps 668 mmHg 48%

4 August, Wednesday

Time Temperature Precipitation Wind Pressure Humidity
00:00 +21°C° 0 mm 3 mps 668 mmHg 49%
01:00 +21°C° 0 mm 3 mps 668 mmHg 49%
02:00 +21°C° 0 mm 3 mps 668 mmHg 49%
03:00 +21°C° 0 mm 3 mps 668 mmHg 50%
04:00 +21°C° 0 mm 3 mps 668 mmHg 49%
05:00 +22°C° 0 mm 3 mps 668 mmHg 49%
06:00 +24°C° 0 mm 2 mps 669 mmHg 49%
07:00 +26°C° 0 mm 2 mps 669 mmHg 43%
08:00 +28°C° 0 mm 2 mps 669 mmHg 37%
09:00 +30°C° 0 mm 2 mps 670 mmHg 31%
10:00 +30°C° 0 mm 3 mps 670 mmHg 30%
11:00 +31°C° 0 mm 3 mps 670 mmHg 29%
12:00 +33°C° 0 mm 4 mps 670 mmHg 28%
13:00 +33°C° 0 mm 4 mps 669 mmHg 29%
14:00 +32°C° 0 mm 4 mps 669 mmHg 29%
15:00 +32°C° 0 mm 4 mps 669 mmHg 30%
16:00 +30°C° 0 mm 3 mps 669 mmHg 32%
17:00 +29°C° 0 mm 2 mps 669 mmHg 35%
18:00 +28°C° 0 mm 1 mps 669 mmHg 37%
19:00 +26°C° 0 mm 2 mps 669 mmHg 40%
20:00 +25°C° 0 mm 2 mps 669 mmHg 42%
21:00 +22°C° 0 mm 3 mps 669 mmHg 45%
22:00 +22°C° 0 mm 3 mps 669 mmHg 45%
23:00 +22°C° 0 mm 3 mps 669 mmHg 45%
Show more